Regional Weather Roundup
Issued by NWS

Home | Current Version | Previous Version | Text Only | Print | Product List | Glossary On
Versions: 1 2 3 4 5 6 7 8 9 10 11 12 13 14 15 16 17 18 19 20 21 22 23 24 25 26 27 28 29 30 31 32 33 34 35 36 37 38 39 40 41 42 43 44 45 46 47 48 49 50
000
ASUS43 KMPX 272110
RWRMN
WEATHER ROUNDUP FOR MINNESOTA
NATIONAL WEATHER SERVICE TWIN CITIES/CHANHASSEN MN
400 PM CDT WED MAY 27 2015


NOTE: "FAIR" INDICATES FEW OR NO CLOUDS BELOW 12,000 FEET WITH NO
SIGNIFICANT WEATHER AND/OR OBSTRUCTIONS TO VISIBILITY. N/A MEANS
CURRENT SKY AND/OR WEATHER CONDITIONS ARE NOT AVAILABLE.

MNZ060>063-068>070-272200-
   Twin Cities Metro

CITY           SKY/WX    TMP DP  RH WIND       PRES   REMARKS
TWIN CITIES    MOSUNNY   82  54  37 W10G18    29.96R
ST PAUL        SUNNY     83  56  39 W9        29.96R
CRYSTAL        SUNNY     83  54  36 W10       29.94S
BLAINE         SUNNY     84  55  37 W10       29.95S
LAKEVILLE      SUNNY     79  57  47 W10G16    29.98S
EDEN PRAIRIE   SUNNY     82  56  40 W9        29.96R
SOUTH ST PAUL  SUNNY     82  55  39 W3G9      29.96S
LAKE ELMO      FAIR      81  59  47 W10       29.97S
$$
MNZ001>005-007-008-013>017-022>024-027-028-272200-
   Northwest Minnesota

CITY           SKY/WX    TMP DP  RH WIND       PRES   REMARKS
BEMIDJI        SUNNY     78  50  37 NW9G17    29.96S
HALLOCK        SUNNY     72  45  37 N8        29.99R
ROSEAU         SUNNY     73  46  38 N3        29.97S
WARROAD        SUNNY     66  52  59 E12G17    29.99R
THIEF RVR FALL SUNNY     73  48  40 N7        29.98S
CROOKSTON      SUNNY     77  50  38 N8        29.97S
FOSSTON        SUNNY     79  48  34 CALM      29.97S
DETROIT LAKES  SUNNY     79  48  34 NW6       30.00R
MOORHEAD       SUNNY     81  55  41 W5        29.97S
PARK RAPIDS    SUNNY     84  47  27 W9G18     29.95S
MAHNOMEN       FAIR      79  49  34 W8        29.97S
$$
MNZ006-009>011-018-025>026-272200-
   North Central Minnesota

CITY           SKY/WX    TMP DP  RH WIND       PRES   REMARKS
BAUDETTE       SUNNY     70  46  42 NW12      29.97S
FLAG ISLAND    SUNNY     66  45  45 NE7       29.98R
INTL FALLS     MOSUNNY   76  47  35 NW10G18   29.93R
WASKISH        SUNNY     75  55  50 SW7       29.96R
BIG FORK       SUNNY    N/A N/A N/A W7        29.94R
LONGVILLE      SUNNY     79  46  31 NW6       29.96R
GRAND RAPIDS   SUNNY     79  48  34 W9        29.95R
CRANE LAKE     SUNNY     75  48  38 NW10      29.93R
ORR            MOSUNNY   79  45  29 NW13      29.90R
COOK           MOSUNNY   77  48  36 W8        29.92R
WALKER         FAIR      78  48  33 NW6       29.95S
$$
MNZ012-019>021-037-272200-
   Northeast Minnesota

CITY           SKY/WX    TMP DP  RH WIND       PRES   REMARKS
DULUTH         MOSUNNY   78  51  38 W8        29.91R
HIBBING        PTSUNNY   82  48  30 NW15G22   29.91R
EVELETH        MOSUNNY   77  46  33 NW6       29.93R
DULUTH HARBOR  MOSUNNY   82  52  34 NW7       29.88R
TWO HARBORS    MOSUNNY   84  54  34 W8G17     29.86R
SILVER BAY     MOSUNNY   75  55  50 W3        29.86R
GRAND MARAIS     N/A     73  42  32 NW10G26   29.84R
G MARAIS ARPRT LGT RAIN  68  43  40 N13G26    29.91R
$$
MNZ029>031-032-039>041-046>048-054>057-064-272200-
   West Central Minnesota

CITY           SKY/WX    TMP DP  RH WIND       PRES   REMARKS
FERGUS FALLS   SUNNY     81  50  34 NW7       29.96S
WHEATON        SUNNY     81  48  32 W5        29.98S
MORRIS         SUNNY     84  50  30 NW8       29.97S
ALEXANDRIA     SUNNY     81  49  32 W10       29.99S
ELBOW LAKE     FAIR      80  52  38 NW8       29.97F
WADENA         SUNNY     81  50  34 NW9       29.97S
GLENWOOD       SUNNY     82  48  30 W8        29.99S
APPLETON       SUNNY     84  46  26 NW5       29.97S
BENSON         SUNNY     84  45  24 NW6       29.97S
ORTONVILLE     SUNNY     82  45  26 W5        29.97F
MADISON        SUNNY     82  46  28 N5        29.97F
WILLMAR          N/A     84  50  30 NW12      29.99R
$$
MNZ033>034-036-042>043-049>051-058-059-272200-
   Central Minnesota

CITY           SKY/WX    TMP DP  RH WIND       PRES   REMARKS
ST CLOUD       SUNNY     83  54  36 W5        29.95S
SAUK CENTRE    FAIR      81  52  36 W7        29.97S
PAYNESVILLE    SUNNY     78  50  37 SW6       29.98R
AITKIN         SUNNY     82  39  21 W7        29.94R
PINE RIVER     MOSUNNY   81  52  36 W6        29.98S
BRAINERD       MOSUNNY   81  46  29 NW3       29.95S
STAPLES        SUNNY     81  46  30 W8        29.96R
LONG PRAIRIE   FAIR      81  50  34 W10G22    29.97S
LITTLE FALLS   SUNNY     81  45  28 W6        29.96S
LITCHFIELD     SUNNY     84  48  28 W7        29.97R
BUFFALO        SUNNY     82  49  31 W7        29.97S
MAPLE LAKE     SUNNY     83  53  35 NW7       29.97S
$$
MNZ037-044-045-052-053-272200-
   East Central Minnesota

CITY           SKY/WX    TMP DP  RH WIND       PRES   REMARKS
PRINCETON      SUNNY     84  52  32 W7        29.96R
MORA           SUNNY     79  46  31 NW6       29.96S
CAMBRIDGE      SUNNY     84  61  45 W6        29.93S
RUSH CITY      SUNNY     80  56  43 W5        29.94S
MOOSE LAKE     SUNNY     81  57  44 W8        29.91S
HINCKLEY       FAIR      82  54  36 W10G20    29.93S
CLOQUET        MOSUNNY   82  43  24 NW8       29.91F
MCGREGOR       MOSUNNY   81  46  30 NW7       29.94R
$$
MNZ071>073-080-081-089-090-097-098-272200-
   Southwest Minnesota

CITY           SKY/WX    TMP DP  RH WIND       PRES   REMARKS
MONTEVIDEO     SUNNY     86  45  23 N8        29.98S
GRANITE FALLS  SUNNY     84  47  26 N7        29.99S
CANBY          MOSUNNY   82  47  28 W6        29.99S
MARSHALL       MOSUNNY   84  45  24 CALM      29.98S
REDWOOD FALLS  SUNNY     85  49  28 VRB3      29.98R
OLIVIA         MOSUNNY   81  46  30 W7        29.97S
PIPESTONE      SUNNY     81  45  28 W3        30.02S
WINDOM         SUNNY     84  45  24 W3        30.01S
WORTHINGTON    SUNNY     82  46  28 NW8       30.01F
JACKSON        SUNNY     82  45  26 NW6       30.02S
TRACY          MOSUNNY   84  47  27 NW6       30.00S
SLAYTON        SUNNY     83  42  23 CALM      30.03R
$$
MNZ065>067-074>077-082>085-091>093-272200-
   South Central Minnesota

CITY           SKY/WX    TMP DP  RH WIND       PRES   REMARKS
MANKATO        SUNNY     81  55  41 W13       29.99S
NEW ULM        SUNNY     82  54  36 SW7       29.99R
ST JAMES       SUNNY     84  54  34 W10       30.00S
FAIRMONT       SUNNY     84  50  30 W7        30.01S
GLENCOE        SUNNY     83  57  40 W10       29.97S
FARIBAULT      SUNNY     81  57  44 SW8       30.00R
OWATONNA       SUNNY     81  55  41 W12       30.01R
WASECA         SUNNY     79  55  44 W9        30.02R
ALBERT LEA     SUNNY     81  57  44 W6        30.01S
$$
MNZ078>079-086>088-094>096-272200-
   Southeast Minnesota

CITY           SKY/WX    TMP DP  RH WIND       PRES   REMARKS
ROCHESTER      SUNNY     79  59  50 W13       30.02R
RED WING       SUNNY     82  54  36 W15       29.96S
STANTON        SUNNY     81  57  43 SW9       29.97S
DODGE CENTER   SUNNY     81  57  44 W12       30.01S
WINONA         SUNNY     79  55  44 W6        29.99R
AUSTIN         SUNNY     79  59  50 W8        30.01S
PRESTON        SUNNY     77  58  50 W12       30.03R
$$
ABBREVIATIONS USED IN REMARKS
   TC - TEMPERATURES IN CELSIUS
  WCI - WIND CHILL INDEX
   HX - HEAT INDEX
  VSB - VISIBILITY
$$



USA.gov is the U.S. government's official web portal to all federal, state and local government web resources and services.